Regional Weather Roundup
Issued by NWS

Home | Current Version | Previous Version | Graphics & Text | Print | Product List | Glossary On
Versions: 1 2 3 4 5 6 7 8 9 10 11 12 13 14 15 16 17 18 19 20 21 22 23 24 25 26 27 28 29 30 31 32 33 34 35 36 37 38 39 40 41 42 43 44 45 46 47 48 49 50
000
ASUS43 KLOT 271410
RWRIL

ILLINOIS REGIONAL WEATHER ROUNDUP
NATIONAL WEATHER SERVICE CHICAGO/ROMEOVILLE IL
800 AM CST THU NOV 27 2014

NOTE: "FAIR" INDICATES FEW OR NO CLOUDS BELOW 12,000 FEET WITH NO
SIGNIFICANT WEATHER AND/OR OBSTRUCTIONS TO VISIBILITY.

* THESE STATIONS ARE NOT UNDER NWS QUALITY CONTROL. THEY ALSO MAY NOT
  REPORT WEATHER SUCH AS PRECIPITATION OR FOG.

ILZ001-002-007-009-015-016-024-271500-
NORTHWEST ILLINOIS

CITY           SKY/WX    TMP DP  RH WIND       PRES   REMARKS
MOLINE         LGT SNOW  23  18  81 W16       30.40R WCI  10
STERLING*      MOCLDY    25  19  80 NW10      30.35S WCI  15
SAVANNA*       CLOUDY    26  19  76 NW7       30.37R WCI  18
$$

ILZ003-004-008-010-011-017-018-271500-
NORTH CENTRAL ILLINOIS

CITY           SKY/WX    TMP DP  RH WIND       PRES   REMARKS
ROCKFORD       FLURRIES  24  18  77 NW12      30.35R WCI  13
FREEPORT*      CLOUDY    23  18  80 NW10      30.36R WCI  12
ROCHELLE*      LGT SNOW  22  20  91 NW8       30.34R WCI  13
DE KALB*       LGT SNOW  20  18  89 NW13      30.31R WCI   8
PERU*          CLOUDY    25  22  87 NW8       30.36R WCI  16
$$

ILZ005-006-012>014-019>023-271500-
NORTHEAST ILLINOIS

CITY           SKY/WX    TMP DP  RH WIND       PRES   REMARKS
CHICAGO-OHARE  CLOUDY    24  18  77 NW12      30.29R WCI  13
CHICAGO-MIDWAY CLOUDY    26  20  77 W8        30.30R WCI  18
AURORA         CLOUDY    23  18  81 NW13      30.32R HAZE    WCI  11
LANSING*       CLOUDY    25  20  83 W8        30.29R WCI  16
JOLIET*        CLOUDY    24  19  83 NW8       30.32R FOG     WCI  14
WAUKEGAN       CLOUDY    22  17  81 NW10      30.27R WCI  11
DUPAGE AIRPORT CLOUDY    23  18  81 NW13      30.30R WCI  11
KANKAKEE*      CLOUDY   N/A N/A N/A NW10      30.32R HAZE
WHEELING       CLOUDY    24  19  81 NW12      30.31R HAZE    WCI  13
MORRIS*        CLOUDY    24  22  91 NW12      30.32R FOG     WCI  13
ROMEOVILLE*    CLOUDY    24  20  86 NW10      30.31R WCI  13
NORTHERLY ISL    N/A     26  21  81 W10         N/A  WCI  16
$$

LMZ740>746-271500-
SOUTHERN LAKE MICHIGAN

STATION/POSITION SKY/WX   TEMP    WIND        PRES    VSBY  WAVE
                          AIR SEA DIR/SP/G                  HT/PER
                          (F)     (DEG/KT/KT) (MB)    (MI)  (FT/S)
SOUTHERN BUOY              31 42  310/ 19/ 23 1024.0R         5/ 6
WAUKEGAN HARBOR            23     310/ 10/ 15   N/A
HARRISON CRIB              25     310/ 15/ 19   N/A
BURNHAM HARBOR             26     300/ 10/ 14   N/A
CALUMET HARBOR             25     260/  7/ 11 1024.1R
MICHIGAN CITY              31     280/ 16/ 20   N/A
$$

ILZ025>027-034>036-040-047-049-050-058-095>099-271500-
WEST-CENTRAL ILLINOIS

CITY           SKY/WX    TMP DP  RH WIND       PRES   REMARKS
QUINCY         CLOUDY    26  18  71 NW20      30.44R WCI  12
GALESBURG*     LGT SNOW  24  21  89 W18G24    30.40R WCI  10
MACOMB*        CLOUDY    25  23  91 NW16      30.44R FOG     WCI  13
JACKSONVILLE*  CLOUDY    29  24  79 NW10      30.43R WCI  20
PITTSFIELD*    CLOUDY    29  23  78 NW12      30.45R WCI  19
$$

ILZ028>032-037-038-041>044-048-051>054-059>061-271500-
CENTRAL ILLINOIS

CITY           SKY/WX    TMP DP  RH WIND       PRES   REMARKS
PONTIAC        CLOUDY    25  22  90 W12       30.35R FOG     WCI  14
BLOOMINGTON    MOCLDY    25  21  86 NW13      30.36R WCI  13
DECATUR        CLOUDY    26  21  81 NW15      30.38R HAZE    WCI  14
PEORIA         CLOUDY    27  20  75 NW6       30.38S WCI  20
LACON*         CLOUDY    25  20  81 NW9       30.37R WCI  15
LINCOLN*       CLOUDY    27  24  86 W5        30.40R FOG     WCI  22
SPRINGFIELD    CLOUDY    27  22  81 NW12      30.41R WCI  17
TAYLORVILLE    CLOUDY    27  23  86 NW9       30.41R FOG     WCI  17
$$

ILZ033-039-045-046-055>057-062-063-271500-
EAST-CENTRAL ILLINOIS

CITY           SKY/WX    TMP DP  RH WIND       PRES   REMARKS
CHAMPAIGN      PTSUNNY   24  20  84 NW14      30.35R FOG     WCI  12
DANVILLE*      CLOUDY    24  20  85 NW13G18   30.29R FOG     WCI  12
RANTOUL*       PTSUNNY   26  22  85 NW16G22   30.34R FOG     WCI  13
MATTOON        CLOUDY    24  20  84 NW14      30.36R WCI  12
PARIS*         CLOUDY    26  23  89 NW7       30.35R FOG     WCI  18
$$

ILZ079-100>102-271500-
SOUTHWEST ILLINOIS

CITY           SKY/WX    TMP DP  RH WIND       PRES   REMARKS
ALTON          CLOUDY    28  25  86 NW15G21   30.44R FOG     WCI  17
BELLEVILLE     MIX PCPN  29  27  94 NW13G20   30.44R WCI  18
CAHOKIA*       CLOUDY    31  25  78 NW22G28   30.46R WCI  18
SPARTA*        CLOUDY    27  23  82 NW6       30.46R WCI  21
$$

ILZ064>066-069>071-074>076-080>082-084>086-088>090-092>094-271500-
SOUTH-CENTRAL ILLINOIS

CITY           SKY/WX    TMP DP  RH WIND       PRES   REMARKS
CARBONDALE     CLOUDY    29  22  75 N16G23    30.45R WCI  17
CAIRO*         CLOUDY    36  30  79 NW12      30.44R WCI  27
EFFINGHAM*     CLOUDY    23  18  78 W9        30.40R WCI  13
MARION         CLOUDY    30  23  74 NW12      30.45R WCI  21
MT. VERNON     PTSUNNY   27  19  74 CALM      30.43R
CENTRALIA*     MOSUNNY   26  22  84 NW6       30.42R HAZE    WCI  19
SALEM*           N/A     26  22  86 NW7       30.42R FOG     WCI  18
METROPOLIS*    CLOUDY    32  29  87 NW10        N/A  WCI  24
$$

ILZ067-068-072-073-078-083-087-091-271500-
SOUTHEAST ILLINOIS

CITY           SKY/WX    TMP DP  RH WIND       PRES   REMARKS
LAWRENCEVILLE  SUNNY     25  21  85 NW16      30.38R FOG     WCI  12
FLORA*         SUNNY     24  21  91 NW9       30.40R FOG     WCI  14
FAIRFIELD*     SUNNY     26  22  87 W5        30.41R FOG     WCI  20
HARRISBURG*    CLOUDY    29  24  84 NW13G18   30.44R WCI  18
ROBINSON*      SUNNY     26  23  89 W10       30.39R WCI  15
CARMI*         PTSUNNY   29  26  90 N13       30.41R WCI  19
$$

ABBREVIATIONS USED IN REMARKS
   TC - TEMPERATURE IN CELSIUS
  WCI - WIND CHILL INDEX
   HX - HEAT INDEX
  VSB - VISIBILITY
$$



USA.gov is the U.S. government's official web portal to all federal, state and local government web resources and services.